Time,TemperatureF,DewpointF,PressureIn,WindDirection,WindDirectionDegrees,WindSpeedMPH,WindSpeedGustMPH,Humidity,HourlyPrecipIn,Conditions,Clouds,dailyrainin,SolarRadiationWatts/m^2,SoftwareType,DateUTC
2013-01-31 00:01:00,44.9,44.4,30.30,SW,236,0.0,0.0,98,0.00,,---,0.16,0.00,VWS V14.01,2013-01-31 08:01:00,
2013-01-31 00:06:00,44.9,44.4,30.30,SW,236,0.0,2.0,98,0.00,,---,0.00,0.00,VWS V14.01,2013-01-31 08:06:00,
2013-01-31 00:11:00,44.9,44.4,30.30,SW,236,0.0,2.0,98,0.00,,---,0.00,0.00,VWS V14.01,2013-01-31 08:11:00,
2013-01-31 00:16:00,44.9,44.4,30.30,SW,236,0.0,0.0,98,0.00,,---,0.00,0.00,VWS V14.01,2013-01-31 08:16:00,
2013-01-31 00:21:00,44.8,44.3,30.30,SW,236,0.0,0.0,98,0.00,,---,0.00,0.00,VWS V14.01,2013-01-31 08:21:00,
2013-01-31 00:26:00,44.8,44.3,30.30,SW,236,0.0,0.0,98,0.00,,---,0.00,0.00,VWS V14.01,2013-01-31 08:26:00,
2013-01-31 00:31:00,44.8,44.3,30.31,SW,236,0.0,1.0,98,0.00,,---,0.00,0.00,VWS V14.01,2013-01-31 08:31:00,
2013-01-31 00:36:00,44.8,44.3,30.31,SW,236,0.0,1.0,98,0.00,,---,0.00,0.00,VWS V14.01,2013-01-31 08:36:00,
2013-01-31 00:42:00,44.8,44.3,30.31,WSW,247,3.0,4.0,98,0.00,,---,0.00,0.00,VWS V14.01,2013-01-31 08:42:00,
2013-01-31 00:47:00,44.8,44.3,30.31,WSW,253,3.0,4.0,98,0.00,,---,0.00,0.00,VWS V14.01,2013-01-31 08:47:00,
2013-01-31 00:52:00,44.9,44.4,30.31,West,270,2.0,5.0,98,0.00,,---,0.00,0.00,VWS V14.01,2013-01-31 08:52:00,
2013-01-31 00:57:00,44.9,44.4,30.31,WSW,249,0.0,5.0,98,0.00,,---,0.00,0.00,VWS V14.01,2013-01-31 08:57:00,
2013-01-31 01:02:00,44.8,44.3,30.31,WSW,248,2.0,5.0,98,0.00,,---,0.00,0.00,VWS V14.01,2013-01-31 09:02:00,
2013-01-31 01:07:00,44.9,44.4,30.31,SW,215,0.0,2.0,98,0.00,,---,0.00,0.00,VWS V14.01,2013-01-31 09:07:00,
2013-01-31 01:12:00,44.9,44.4,30.30,SSW,204,0.0,2.0,98,0.00,,---,0.00,0.00,VWS V14.01,2013-01-31 09:12:00,
2013-01-31 01:17:00,44.9,44.4,30.30,WSW,239,0.0,2.0,98,0.00,,---,0.00,0.00,VWS V14.01,2013-01-31 09:17:00,
2013-01-31 01:22:00,44.9,44.4,30.30,WSW,239,1.0,2.0,98,0.00,,---,0.00,0.00,VWS V14.01,2013-01-31 09:22:00,
2013-01-31 01:27:00,44.8,44.3,30.31,West,271,0.0,3.0,98,0.00,,---,0.00,0.00,VWS V14.01,2013-01-31 09:27:00,
2013-01-31 01:32:00,44.8,44.3,30.31,West,271,0.0,1.0,98,0.00,,---,0.00,0.00,VWS V14.01,2013-01-31 09:32:00,
2013-01-31 01:37:00,44.8,44.3,30.31,West,271,0.0,1.0,98,0.00,,---,0.00,0.00,VWS V14.01,2013-01-31 09:37:00,
2013-01-31 01:42:00,44.8,44.3,30.31,West,271,0.0,0.0,98,0.00,,---,0.00,0.00,VWS V14.01,2013-01-31 09:42:00,
2013-01-31 01:47:00,44.7,44.2,30.31,West,271,0.0,0.0,98,0.00,,---,0.00,0.00,VWS V14.01,2013-01-31 09:47:00,
2013-01-31 01:52:00,44.7,44.2,30.31,West,271,0.0,0.0,98,0.01,,---,0.01,0.00,VWS V14.01,2013-01-31 09:52:00,
2013-01-31 01:57:00,44.7,44.2,30.31,West,271,0.0,0.0,98,0.01,,---,0.01,0.00,VWS V14.01,2013-01-31 09:57:00,
2013-01-31 02:02:00,44.7,44.2,30.31,West,271,0.0,1.0,98,0.01,,---,0.01,0.00,VWS V14.01,2013-01-31 10:02:00,
2013-01-31 02:07:00,44.7,44.2,30.32,West,271,0.0,0.0,98,0.01,,---,0.01,0.00,VWS V14.01,2013-01-31 10:07:00,
2013-01-31 02:12:00,44.7,44.2,30.32,West,271,0.0,0.0,98,0.01,,---,0.01,0.00,VWS V14.01,2013-01-31 10:12:00,
2013-01-31 02:17:00,44.6,44.1,30.32,West,271,0.0,0.0,98,0.01,,---,0.01,0.00,VWS V14.01,2013-01-31 10:17:00,
2013-01-31 02:22:00,44.7,44.2,30.32,WNW,285,0.0,4.0,98,0.01,,---,0.01,0.00,VWS V14.01,2013-01-31 10:22:00,
2013-01-31 02:27:00,44.7,44.2,30.32,West,269,0.0,4.0,98,0.02,,---,0.02,0.00,VWS V14.01,2013-01-31 10:27:00,
2013-01-31 02:32:00,44.7,44.2,30.32,West,269,0.0,2.0,98,0.02,,---,0.02,0.00,VWS V14.01,2013-01-31 10:32:00,
2013-01-31 02:37:00,44.7,44.2,30.32,West,269,0.0,2.0,98,0.02,,---,0.02,0.00,VWS V14.01,2013-01-31 10:37:00,
2013-01-31 02:42:00,44.7,44.2,30.32,West,269,0.0,1.0,98,0.02,,---,0.02,0.00,VWS V14.01,2013-01-31 10:42:00,
2013-01-31 02:47:00,44.7,44.2,30.32,West,269,0.0,0.0,98,0.02,,---,0.02,0.00,VWS V14.01,2013-01-31 10:47:00,
2013-01-31 02:52:00,44.7,44.2,30.32,West,269,0.0,0.0,98,0.02,,---,0.03,0.00,VWS V14.01,2013-01-31 10:52:00,
2013-01-31 02:57:00,44.7,44.2,30.32,West,269,0.0,0.0,98,0.02,,---,0.03,0.00,VWS V14.01,2013-01-31 10:57:00,
2013-01-31 03:02:00,44.7,44.2,30.32,West,269,0.0,0.0,98,0.02,,---,0.03,0.00,VWS V14.01,2013-01-31 11:02:00,
2013-01-31 03:07:00,44.7,44.2,30.32,West,269,0.0,0.0,98,0.03,,---,0.04,0.00,VWS V14.01,2013-01-31 11:07:00,
2013-01-31 03:12:00,44.7,44.2,30.32,SW,226,0.0,2.0,98,0.03,,---,0.04,0.00,VWS V14.01,2013-01-31 11:12:00,
2013-01-31 03:17:00,44.7,44.2,30.33,SSW,196,0.0,2.0,98,0.04,,---,0.05,0.00,VWS V14.01,2013-01-31 11:17:00,
2013-01-31 03:22:00,44.7,44.2,30.33,WSW,238,0.0,2.0,98,0.04,,---,0.05,0.00,VWS V14.01,2013-01-31 11:22:00,
2013-01-31 03:27:00,44.7,44.4,30.32,SW,225,0.0,2.0,99,0.04,,---,0.06,0.00,VWS V14.01,2013-01-31 11:27:00,
2013-01-31 03:32:00,44.8,44.5,30.32,SW,224,0.0,1.0,99,0.05,,---,0.07,0.00,VWS V14.01,2013-01-31 11:32:00,
2013-01-31 03:37:00,44.8,44.5,30.32,SW,224,0.0,1.0,99,0.06,,---,0.08,0.00,VWS V14.01,2013-01-31 11:37:00,
2013-01-31 03:42:00,44.8,44.5,30.32,SW,224,0.0,0.0,99,0.06,,---,0.08,0.00,VWS V14.01,2013-01-31 11:42:00,
2013-01-31 03:47:00,44.8,44.5,30.32,SW,224,0.0,0.0,99,0.06,,---,0.08,0.00,VWS V14.01,2013-01-31 11:47:00,
2013-01-31 03:52:00,44.7,44.4,30.32,SW,224,0.0,0.0,99,0.06,,---,0.09,0.00,VWS V14.01,2013-01-31 11:52:00,
2013-01-31 03:57:00,44.7,44.4,30.32,SW,224,0.0,0.0,99,0.06,,---,0.09,0.00,VWS V14.01,2013-01-31 11:57:00,
2013-01-31 04:02:00,44.7,44.4,30.32,SW,224,0.0,0.0,99,0.06,,---,0.09,0.00,VWS V14.01,2013-01-31 12:02:00,
2013-01-31 04:07:00,44.7,44.2,30.32,SW,224,0.0,0.0,98,0.05,,---,0.09,0.00,VWS V14.01,2013-01-31 12:07:00,
2013-01-31 04:12:00,44.7,44.2,30.32,SW,224,0.0,0.0,98,0.05,,---,0.09,0.00,VWS V14.01,2013-01-31 12:12:00,
2013-01-31 04:17:00,44.7,44.2,30.32,SW,224,0.0,0.0,98,0.05,,---,0.10,0.00,VWS V14.01,2013-01-31 12:17:00,
2013-01-31 04:22:00,44.7,44.2,30.32,SW,224,0.0,0.0,98,0.05,,---,0.10,0.00,VWS V14.01,2013-01-31 12:22:00,
2013-01-31 04:27:00,44.7,44.2,30.32,South,182,1.0,1.0,98,0.04,,---,0.10,0.00,VWS V14.01,2013-01-31 12:27:00,
2013-01-31 04:32:00,44.7,44.2,30.32,South,182,0.0,1.0,98,0.03,,---,0.10,0.00,VWS V14.01,2013-01-31 12:32:00,
2013-01-31 04:37:00,44.7,44.2,30.32,South,182,0.0,0.0,98,0.02,,---,0.10,0.00,VWS V14.01,2013-01-31 12:37:00,
2013-01-31 04:42:00,44.7,44.2,30.31,South,182,0.0,0.0,98,0.02,,---,0.10,0.00,VWS V14.01,2013-01-31 12:42:00,
2013-01-31 04:47:00,44.7,44.2,30.31,SE,125,0.0,5.0,98,0.03,,---,0.11,0.00,VWS V14.01,2013-01-31 12:47:00,
2013-01-31 04:52:00,44.6,44.1,30.31,South,190,1.0,5.0,98,0.03,,---,0.11,0.00,VWS V14.01,2013-01-31 12:52:00,
2013-01-31 04:57:00,44.7,44.2,30.31,SSW,194,0.0,3.0,98,0.02,,---,0.11,0.00,VWS V14.01,2013-01-31 12:57:00,
2013-01-31 05:03:00,44.6,44.1,30.31,SE,124,0.0,5.0,98,0.02,,---,0.11,0.00,VWS V14.01,2013-01-31 13:03:00,
2013-01-31 05:08:00,44.6,44.1,30.31,SE,124,0.0,5.0,98,0.02,,---,0.11,0.00,VWS V14.01,2013-01-31 13:08:00,
2013-01-31 05:13:00,44.6,44.1,30.31,East,85,1.0,4.0,98,0.02,,---,0.11,0.00,VWS V14.01,2013-01-31 13:13:00,
2013-01-31 05:18:00,44.6,44.1,30.30,SSE,167,0.0,4.0,98,0.02,,---,0.11,0.00,VWS V14.01,2013-01-31 13:18:00,
2013-01-31 05:23:00,44.6,44.1,30.30,SSE,167,0.0,4.0,98,0.01,,---,0.11,0.00,VWS V14.01,2013-01-31 13:23:00,
2013-01-31 05:28:00,44.6,44.1,30.30,South,169,1.0,4.0,98,0.01,,---,0.11,0.00,VWS V14.01,2013-01-31 13:28:00,
2013-01-31 05:33:00,44.5,44.0,30.31,ESE,117,0.0,4.0,98,0.01,,---,0.11,0.00,VWS V14.01,2013-01-31 13:33:00,
2013-01-31 05:38:00,44.5,44.0,30.31,West,259,0.0,2.0,98,0.01,,---,0.11,0.00,VWS V14.01,2013-01-31 13:38:00,
2013-01-31 05:43:00,44.4,43.9,30.31,SSW,213,0.0,2.0,98,0.01,,---,0.11,0.00,VWS V14.01,2013-01-31 13:43:00,
2013-01-31 05:48:00,44.4,43.9,30.30,SW,231,0.0,1.0,98,0.00,,---,0.11,0.00,VWS V14.01,2013-01-31 13:48:00,
2013-01-31 05:53:00,44.4,43.9,30.31,South,179,0.0,4.0,98,0.00,,---,0.11,0.00,VWS V14.01,2013-01-31 13:53:00,
2013-01-31 05:58:00,44.3,43.8,30.31,SW,215,1.0,2.0,98,0.00,,---,0.11,0.00,VWS V14.01,2013-01-31 13:58:00,
2013-01-31 06:03:00,44.3,43.8,30.31,SW,221,1.0,2.0,98,0.00,,---,0.11,0.00,VWS V14.01,2013-01-31 14:03:00,
2013-01-31 06:08:00,44.3,43.8,30.31,WSW,240,2.0,3.0,98,0.00,,---,0.11,0.00,VWS V14.01,2013-01-31 14:08:00,
2013-01-31 06:13:00,44.3,43.8,30.31,SW,219,2.0,4.0,98,0.00,,---,0.11,0.00,VWS V14.01,2013-01-31 14:13:00,
2013-01-31 06:18:00,44.3,43.8,30.31,SW,224,0.0,4.0,98,0.00,,---,0.11,0.00,VWS V14.01,2013-01-31 14:18:00,
2013-01-31 06:23:00,44.4,43.9,30.31,WNW,284,0.0,2.0,98,0.00,,---,0.11,0.00,VWS V14.01,2013-01-31 14:23:00,
2013-01-31 06:28:00,44.4,44.1,30.31,South,171,1.0,2.0,99,0.01,,---,0.12,0.00,VWS V14.01,2013-01-31 14:28:00,
2013-01-31 06:33:00,44.4,44.1,30.31,South,171,0.0,2.0,99,0.01,,---,0.12,0.00,VWS V14.01,2013-01-31 14:33:00,
2013-01-31 06:38:00,44.4,43.9,30.31,South,186,0.0,1.0,98,0.01,,---,0.12,0.00,VWS V14.01,2013-01-31 14:38:00,
2013-01-31 06:43:00,44.3,44.0,30.30,SSW,195,0.0,2.0,99,0.01,,---,0.12,0.00,VWS V14.01,2013-01-31 14:43:00,
2013-01-31 06:48:00,44.3,43.8,30.30,SSW,195,0.0,2.0,98,0.01,,---,0.12,0.00,VWS V14.01,2013-01-31 14:48:00,
2013-01-31 06:53:00,44.3,44.0,30.30,SSW,193,0.0,1.0,99,0.01,,---,0.12,0.00,VWS V14.01,2013-01-31 14:53:00,
2013-01-31 06:58:00,44.3,43.8,30.30,SSE,156,0.0,4.0,98,0.01,,---,0.12,0.00,VWS V14.01,2013-01-31 14:58:00,
2013-01-31 07:03:00,44.3,44.0,30.30,SSE,156,0.0,2.0,99,0.01,,---,0.12,0.00,VWS V14.01,2013-01-31 15:03:00,
2013-01-31 07:08:00,44.3,44.0,30.30,SSE,156,0.0,2.0,99,0.01,,---,0.12,0.00,VWS V14.01,2013-01-31 15:08:00,
2013-01-31 07:13:00,44.3,44.0,30.30,NNE,28,1.0,4.0,99,0.01,,---,0.12,0.00,VWS V14.01,2013-01-31 15:13:00,
2013-01-31 07:18:00,44.2,43.7,30.30,South,173,0.0,2.0,98,0.01,,---,0.12,0.00,VWS V14.01,2013-01-31 15:18:00,
2013-01-31 07:23:00,44.2,43.7,30.30,SW,221,0.0,4.0,98,0.01,,---,0.12,0.00,VWS V14.01,2013-01-31 15:23:00,
2013-01-31 07:28:00,44.3,43.8,30.31,WSW,252,0.0,3.0,98,0.00,,---,0.12,0.00,VWS V14.01,2013-01-31 15:28:00,
2013-01-31 07:33:00,44.3,43.8,30.31,NW,322,1.0,4.0,98,0.00,,---,0.12,0.00,VWS V14.01,2013-01-31 15:33:00,
2013-01-31 07:38:00,44.3,43.8,30.30,SW,223,0.0,6.0,98,0.00,,---,0.12,0.00,VWS V14.01,2013-01-31 15:38:00,
2013-01-31 07:43:00,44.3,43.8,30.31,SSE,156,1.0,2.0,98,0.00,,---,0.12,0.00,VWS V14.01,2013-01-31 15:43:00,
2013-01-31 07:48:00,44.3,43.8,30.30,WSW,249,0.0,2.0,98,0.00,,---,0.12,0.00,VWS V14.01,2013-01-31 15:48:00,
2013-01-31 07:53:00,44.3,43.8,30.31,WSW,240,0.0,2.0,98,0.00,,---,0.12,0.00,VWS V14.01,2013-01-31 15:53:00,
2013-01-31 07:58:00,44.3,43.8,30.30,South,178,0.0,2.0,98,0.00,,---,0.12,0.00,VWS V14.01,2013-01-31 15:58:00,
2013-01-31 08:03:00,44.3,43.8,30.31,SE,126,0.0,2.0,98,0.00,,---,0.12,0.00,VWS V14.01,2013-01-31 16:03:00,
2013-01-31 08:08:00,44.3,43.8,30.30,SE,126,0.0,2.0,98,0.00,,---,0.12,0.00,VWS V14.01,2013-01-31 16:08:00,
2013-01-31 08:13:00,44.2,43.7,30.31,South,184,0.0,3.0,98,0.00,,---,0.12,0.00,VWS V14.01,2013-01-31 16:13:00,
2013-01-31 08:18:00,44.2,43.7,30.30,ESE,120,0.0,3.0,98,0.00,,---,0.12,7.00,VWS V14.01,2013-01-31 16:18:00,
2013-01-31 08:23:00,44.2,43.7,30.30,ESE,120,0.0,2.0,98,0.00,,---,0.12,19.00,VWS V14.01,2013-01-31 16:23:00,
2013-01-31 08:28:00,44.2,43.7,30.30,NNW,342,0.0,2.0,98,0.00,,---,0.12,33.00,VWS V14.01,2013-01-31 16:28:00,
2013-01-31 08:33:00,44.3,43.8,30.30,NNW,342,0.0,1.0,98,0.00,,---,0.12,39.00,VWS V14.01,2013-01-31 16:33:00,
2013-01-31 08:38:00,44.3,43.8,30.30,SW,228,0.0,2.0,98,0.00,,---,0.12,46.00,VWS V14.01,2013-01-31 16:38:00,
2013-01-31 08:43:00,44.4,43.9,30.30,South,183,0.0,2.0,98,0.00,,---,0.12,49.00,VWS V14.01,2013-01-31 16:43:00,
2013-01-31 08:48:00,44.5,44.0,30.30,SSW,199,1.0,4.0,98,0.00,,---,0.12,58.00,VWS V14.01,2013-01-31 16:48:00,
2013-01-31 08:53:00,44.6,44.1,30.30,SW,218,0.0,4.0,98,0.00,,---,0.12,72.00,VWS V14.01,2013-01-31 16:53:00,
2013-01-31 08:58:00,44.6,44.1,30.30,South,178,1.0,3.0,98,0.00,,---,0.12,132.00,VWS V14.01,2013-01-31 16:58:00,
2013-01-31 09:03:00,44.8,44.3,30.30,WSW,244,0.0,3.0,98,0.00,,---,0.12,113.00,VWS V14.01,2013-01-31 17:03:00,
2013-01-31 09:08:00,45.0,44.5,30.30,SW,225,0.0,8.0,98,0.00,,---,0.12,72.00,VWS V14.01,2013-01-31 17:08:00,
2013-01-31 09:13:00,45.0,44.5,30.30,SW,215,2.0,5.0,98,0.00,,---,0.12,86.00,VWS V14.01,2013-01-31 17:13:00,
2013-01-31 09:18:00,45.1,44.6,30.30,SSE,163,4.0,6.0,98,0.00,,---,0.12,74.00,VWS V14.01,2013-01-31 17:18:00,
2013-01-31 09:23:00,45.0,44.5,30.30,SE,143,2.0,6.0,98,0.00,,---,0.12,93.00,VWS V14.01,2013-01-31 17:23:00,
2013-01-31 09:28:00,45.1,44.6,30.29,SE,126,1.0,5.0,98,0.00,,---,0.12,105.00,VWS V14.01,2013-01-31 17:28:00,
2013-01-31 09:33:00,45.2,44.7,30.30,South,175,0.0,5.0,98,0.00,,---,0.12,90.00,VWS V14.01,2013-01-31 17:33:00,
2013-01-31 09:38:00,45.3,44.8,30.30,ESE,113,0.0,2.0,98,0.00,,---,0.12,93.00,VWS V14.01,2013-01-31 17:38:00,
2013-01-31 09:43:00,45.4,44.9,30.29,SE,128,0.0,2.0,98,0.00,,---,0.12,84.00,VWS V14.01,2013-01-31 17:43:00,
2013-01-31 09:48:00,45.4,44.9,30.30,SSW,196,0.0,5.0,98,0.00,,---,0.12,63.00,VWS V14.01,2013-01-31 17:48:00,
2013-01-31 09:53:00,45.3,44.5,30.30,ESE,117,1.0,6.0,97,0.00,,---,0.12,54.00,VWS V14.01,2013-01-31 17:53:00,
2013-01-31 09:59:00,45.4,44.6,30.30,SE,143,1.0,6.0,97,0.00,,---,0.12,46.00,VWS V14.01,2013-01-31 17:59:00,
2013-01-31 10:04:00,45.4,44.6,30.30,WSW,239,1.0,4.0,97,0.00,,---,0.12,42.00,VWS V14.01,2013-01-31 18:04:00,
2013-01-31 10:09:00,45.4,44.6,30.30,WSW,245,1.0,5.0,97,0.00,,---,0.12,46.00,VWS V14.01,2013-01-31 18:09:00,
2013-01-31 10:14:00,45.2,44.4,30.30,WSW,244,1.0,4.0,97,0.00,,---,0.12,30.00,VWS V14.01,2013-01-31 18:14:00,
2013-01-31 10:19:00,45.2,44.4,30.30,SE,145,0.0,5.0,97,0.00,,---,0.12,32.00,VWS V14.01,2013-01-31 18:19:00,
2013-01-31 10:24:00,45.2,44.1,30.30,West,259,0.0,5.0,96,0.00,,---,0.12,25.00,VWS V14.01,2013-01-31 18:24:00,
2013-01-31 10:29:00,45.2,44.1,30.29,North,355,0.0,3.0,96,0.00,,---,0.12,19.00,VWS V14.01,2013-01-31 18:29:00,
2013-01-31 10:34:00,45.1,44.0,30.29,SSE,167,1.0,3.0,96,0.01,,---,0.13,16.00,VWS V14.01,2013-01-31 18:34:00,
2013-01-31 10:39:00,45.0,43.9,30.29,SSE,158,0.0,5.0,96,0.01,,---,0.13,16.00,VWS V14.01,2013-01-31 18:39:00,
2013-01-31 10:44:00,45.0,43.9,30.29,SW,222,0.0,5.0,96,0.02,,---,0.14,14.00,VWS V14.01,2013-01-31 18:44:00,
2013-01-31 10:49:00,44.9,43.8,30.29,SE,135,5.0,7.0,96,0.02,,---,0.14,19.00,VWS V14.01,2013-01-31 18:49:00,
2013-01-31 10:54:00,44.9,43.8,30.29,East,81,3.0,7.0,96,0.03,,---,0.15,23.00,VWS V14.01,2013-01-31 18:54:00,
2013-01-31 10:59:00,44.8,43.7,30.29,ESE,104,1.0,5.0,96,0.03,,---,0.15,23.00,VWS V14.01,2013-01-31 18:59:00,
2013-01-31 11:04:00,44.8,43.7,30.30,SSW,211,2.0,6.0,96,0.04,,---,0.16,25.00,VWS V14.01,2013-01-31 19:04:00,
2013-01-31 11:09:00,44.8,43.7,30.30,South,190,1.0,6.0,96,0.04,,---,0.16,23.00,VWS V14.01,2013-01-31 19:09:00,
2013-01-31 11:14:00,44.8,43.7,30.29,SSW,211,4.0,6.0,96,0.04,,---,0.16,33.00,VWS V14.01,2013-01-31 19:14:00,
2013-01-31 11:19:00,44.8,43.7,30.30,South,176,1.0,7.0,96,0.04,,---,0.16,33.00,VWS V14.01,2013-01-31 19:19:00,
2013-01-31 11:24:00,44.8,43.7,30.30,SSW,213,1.0,5.0,96,0.04,,---,0.16,30.00,VWS V14.01,2013-01-31 19:24:00,
2013-01-31 11:29:00,44.8,43.7,30.30,South,173,2.0,6.0,96,0.04,,---,0.16,40.00,VWS V14.01,2013-01-31 19:29:00,
2013-01-31 11:34:00,44.8,44.0,30.30,South,191,1.0,4.0,97,0.03,,---,0.16,46.00,VWS V14.01,2013-01-31 19:34:00,
2013-01-31 11:39:00,44.9,44.1,30.30,South,186,0.0,4.0,97,0.04,,---,0.17,44.00,VWS V14.01,2013-01-31 19:39:00,
2013-01-31 11:44:00,44.9,44.1,30.29,SW,220,0.0,4.0,97,0.04,,---,0.17,39.00,VWS V14.01,2013-01-31 19:44:00,
2013-01-31 11:49:00,44.9,44.1,30.29,East,88,0.0,4.0,97,0.03,,---,0.17,35.00,VWS V14.01,2013-01-31 19:49:00,
2013-01-31 11:54:00,44.9,44.1,30.29,South,182,1.0,2.0,97,0.02,,---,0.17,35.00,VWS V14.01,2013-01-31 19:54:00,
2013-01-31 11:59:00,44.9,44.1,30.29,SE,140,0.0,4.0,97,0.02,,---,0.17,37.00,VWS V14.01,2013-01-31 19:59:00,
2013-01-31 12:04:00,44.9,43.8,30.29,SW,227,0.0,4.0,96,0.01,,---,0.17,40.00,VWS V14.01,2013-01-31 20:04:00,
2013-01-31 12:09:00,44.8,43.7,30.29,South,184,0.0,6.0,96,0.01,,---,0.17,39.00,VWS V14.01,2013-01-31 20:09:00,
2013-01-31 12:14:00,44.9,43.8,30.28,South,174,0.0,2.0,96,0.01,,---,0.17,44.00,VWS V14.01,2013-01-31 20:14:00,
2013-01-31 12:19:00,45.0,43.9,30.28,SW,233,0.0,2.0,96,0.01,,---,0.17,51.00,VWS V14.01,2013-01-31 20:19:00,
2013-01-31 12:24:00,45.0,44.2,30.27,North,9,0.0,2.0,97,0.01,,---,0.17,58.00,VWS V14.01,2013-01-31 20:24:00,
2013-01-31 12:29:00,45.0,44.2,30.28,East,95,0.0,5.0,97,0.01,,---,0.17,44.00,VWS V14.01,2013-01-31 20:29:00,
2013-01-31 12:34:00,45.1,44.3,30.28,ENE,74,1.0,5.0,97,0.01,,---,0.17,40.00,VWS V14.01,2013-01-31 20:34:00,
2013-01-31 12:39:00,45.1,44.3,30.27,ENE,74,0.0,1.0,97,0.00,,---,0.17,37.00,VWS V14.01,2013-01-31 20:39:00,
2013-01-31 12:44:00,45.2,44.4,30.27,ENE,74,0.0,0.0,97,0.00,,---,0.17,42.00,VWS V14.01,2013-01-31 20:44:00,
2013-01-31 12:49:00,45.3,44.5,30.27,ENE,74,0.0,1.0,97,0.00,,---,0.17,56.00,VWS V14.01,2013-01-31 20:49:00,
2013-01-31 12:54:00,45.4,44.6,30.27,ENE,74,0.0,1.0,97,0.00,,---,0.17,60.00,VWS V14.01,2013-01-31 20:54:00,
2013-01-31 12:59:00,45.5,44.7,30.27,ENE,74,0.0,0.0,97,0.00,,---,0.17,128.00,VWS V14.01,2013-01-31 20:59:00,
2013-01-31 13:04:00,45.8,45.0,30.26,ENE,74,1.0,1.0,97,0.00,,---,0.17,113.00,VWS V14.01,2013-01-31 21:04:00,
2013-01-31 13:09:00,46.1,45.3,30.26,ESE,114,0.0,2.0,97,0.00,,---,0.17,107.00,VWS V14.01,2013-01-31 21:09:00,
2013-01-31 13:14:00,46.0,45.2,30.26,SE,125,0.0,2.0,97,0.00,,---,0.17,130.00,VWS V14.01,2013-01-31 21:14:00,
2013-01-31 13:19:00,46.1,45.0,30.26,SE,125,0.0,1.0,96,0.00,,---,0.17,125.00,VWS V14.01,2013-01-31 21:19:00,
2013-01-31 13:24:00,46.2,45.1,30.25,South,187,1.0,5.0,96,0.00,,---,0.17,86.00,VWS V14.01,2013-01-31 21:24:00,
2013-01-31 13:29:00,46.3,45.0,30.25,West,277,0.0,3.0,95,0.00,,---,0.17,86.00,VWS V14.01,2013-01-31 21:29:00,
2013-01-31 13:34:00,46.3,44.7,30.25,West,269,5.0,5.0,94,0.00,,---,0.17,127.00,VWS V14.01,2013-01-31 21:34:00,
2013-01-31 13:39:00,46.4,44.8,30.25,ESE,122,0.0,5.0,94,0.00,,---,0.17,125.00,VWS V14.01,2013-01-31 21:39:00,
2013-01-31 13:44:00,46.7,45.3,30.25,ESE,122,0.0,5.0,95,0.00,,---,0.17,105.00,VWS V14.01,2013-01-31 21:44:00,
2013-01-31 13:49:00,46.7,44.8,30.25,SSW,209,0.0,4.0,93,0.00,,---,0.17,105.00,VWS V14.01,2013-01-31 21:49:00,
2013-01-31 13:54:00,46.8,44.9,30.25,NE,44,0.0,5.0,93,0.00,,---,0.17,54.00,VWS V14.01,2013-01-31 21:54:00,
2013-01-31 13:59:00,46.7,44.5,30.25,SSW,205,1.0,6.0,92,0.00,,---,0.17,51.00,VWS V14.01,2013-01-31 21:59:00,
2013-01-31 14:04:00,46.7,44.2,30.25,ESE,110,0.0,6.0,91,0.00,,---,0.17,33.00,VWS V14.01,2013-01-31 22:04:00,
2013-01-31 14:09:00,46.7,44.2,30.25,South,169,0.0,5.0,91,0.00,,---,0.17,42.00,VWS V14.01,2013-01-31 22:09:00,
2013-01-31 14:14:00,46.6,44.1,30.24,SSW,210,3.0,6.0,91,0.00,,---,0.17,63.00,VWS V14.01,2013-01-31 22:14:00,
2013-01-31 14:19:00,46.7,44.5,30.24,SSE,147,0.0,7.0,92,0.00,,---,0.17,49.00,VWS V14.01,2013-01-31 22:19:00,
2013-01-31 14:24:00,46.7,44.5,30.24,ENE,74,0.0,3.0,92,0.00,,---,0.17,53.00,VWS V14.01,2013-01-31 22:24:00,
2013-01-31 14:29:00,46.8,44.9,30.24,West,281,1.0,3.0,93,0.00,,---,0.17,54.00,VWS V14.01,2013-01-31 22:29:00,
2013-01-31 14:34:00,46.7,44.8,30.24,West,270,0.0,3.0,93,0.00,,---,0.17,49.00,VWS V14.01,2013-01-31 22:34:00,
2013-01-31 14:40:00,46.8,44.9,30.24,West,263,0.0,2.0,93,0.00,,---,0.17,53.00,VWS V14.01,2013-01-31 22:40:00,
2013-01-31 14:45:00,46.8,44.9,30.24,West,263,1.0,6.0,93,0.00,,---,0.17,42.00,VWS V14.01,2013-01-31 22:45:00,
2013-01-31 14:50:00,46.7,44.5,30.24,NE,38,0.0,6.0,92,0.00,,---,0.17,44.00,VWS V14.01,2013-01-31 22:50:00,
2013-01-31 14:55:00,46.8,44.9,30.24,ESE,108,0.0,2.0,93,0.00,,---,0.17,32.00,VWS V14.01,2013-01-31 22:55:00,
2013-01-31 15:00:00,46.7,44.8,30.24,SSE,147,1.0,4.0,93,0.00,,---,0.17,42.00,VWS V14.01,2013-01-31 23:00:00,
2013-01-31 15:05:00,46.7,44.8,30.24,ESE,104,1.0,5.0,93,0.00,,---,0.17,32.00,VWS V14.01,2013-01-31 23:05:00,
2013-01-31 15:10:00,46.6,44.4,30.24,WSW,242,0.0,5.0,92,0.00,,---,0.17,33.00,VWS V14.01,2013-01-31 23:10:00,
2013-01-31 15:15:00,46.6,44.7,30.24,NNW,333,0.0,3.0,93,0.00,,---,0.17,25.00,VWS V14.01,2013-01-31 23:15:00,
2013-01-31 15:20:00,46.6,45.0,30.24,ESE,105,0.0,2.0,94,0.00,,---,0.17,18.00,VWS V14.01,2013-01-31 23:20:00,
2013-01-31 15:25:00,46.5,44.6,30.23,ESE,104,0.0,4.0,93,0.00,,---,0.17,21.00,VWS V14.01,2013-01-31 23:25:00,
2013-01-31 15:30:00,46.4,44.5,30.23,WSW,242,2.0,4.0,93,0.00,,---,0.17,19.00,VWS V14.01,2013-01-31 23:30:00,
2013-01-31 15:35:00,46.4,44.5,30.23,WSW,238,0.0,4.0,93,0.00,,---,0.17,19.00,VWS V14.01,2013-01-31 23:35:00,
2013-01-31 15:40:00,46.4,44.5,30.24,ESE,103,1.0,4.0,93,0.00,,---,0.17,23.00,VWS V14.01,2013-01-31 23:40:00,
2013-01-31 15:45:00,46.4,44.5,30.24,WSW,240,0.0,5.0,93,0.00,,---,0.17,19.00,VWS V14.01,2013-01-31 23:45:00,
2013-01-31 15:50:00,46.3,44.4,30.24,WSW,240,0.0,5.0,93,0.00,,---,0.17,12.00,VWS V14.01,2013-01-31 23:50:00,
2013-01-31 15:55:00,46.3,44.4,30.24,SW,236,0.0,0.0,93,0.00,,---,0.17,7.00,VWS V14.01,2013-01-31 23:55:00,
2013-01-31 16:00:00,46.4,44.8,30.24,SW,236,0.0,2.0,94,0.00,,---,0.17,7.00,VWS V14.01,2013-02-01 00:00:00,
2013-01-31 16:05:00,46.3,44.7,30.24,SW,236,0.0,2.0,94,0.00,,---,0.17,0.00,VWS V14.01,2013-02-01 00:05:00,
2013-01-31 16:10:00,46.2,44.6,30.24,SSW,205,0.0,2.0,94,0.00,,---,0.17,5.00,VWS V14.01,2013-02-01 00:10:00,
2013-01-31 16:15:00,46.1,44.5,30.24,ESE,115,0.0,2.0,94,0.00,,---,0.17,0.00,VWS V14.01,2013-02-01 00:15:00,
2013-01-31 16:20:00,46.1,44.5,30.24,ESE,110,0.0,1.0,94,0.00,,---,0.17,0.00,VWS V14.01,2013-02-01 00:20:00,
2013-01-31 16:25:00,46.0,44.4,30.24,ESE,110,0.0,0.0,94,0.00,,---,0.17,0.00,VWS V14.01,2013-02-01 00:25:00,
2013-01-31 16:30:00,46.0,44.4,30.24,East,86,0.0,1.0,94,0.00,,---,0.17,0.00,VWS V14.01,2013-02-01 00:30:00,
2013-01-31 16:35:00,46.0,44.4,30.24,East,86,0.0,1.0,94,0.00,,---,0.17,0.00,VWS V14.01,2013-02-01 00:35:00,
2013-01-31 16:40:00,45.9,44.5,30.24,East,87,0.0,2.0,95,0.00,,---,0.17,0.00,VWS V14.01,2013-02-01 00:40:00,
2013-01-31 16:45:00,45.9,44.5,30.24,East,93,1.0,2.0,95,0.00,,---,0.17,0.00,VWS V14.01,2013-02-01 00:45:00,
2013-01-31 16:50:00,45.8,44.5,30.24,NW,322,0.0,2.0,95,0.00,,---,0.17,0.00,VWS V14.01,2013-02-01 00:50:00,
2013-01-31 16:55:00,45.8,44.5,30.24,WNW,298,0.0,2.0,95,0.00,,---,0.17,0.00,VWS V14.01,2013-02-01 00:55:00,
2013-01-31 17:00:00,45.8,44.5,30.24,WNW,298,0.0,2.0,95,0.00,,---,0.17,0.00,VWS V14.01,2013-02-01 01:00:00,
2013-01-31 17:05:00,45.8,44.5,30.24,WNW,298,0.0,0.0,95,0.00,,---,0.17,0.00,VWS V14.01,2013-02-01 01:05:00,
2013-01-31 17:10:00,45.8,44.5,30.24,NNE,27,0.0,1.0,95,0.00,,---,0.17,0.00,VWS V14.01,2013-02-01 01:10:00,
2013-01-31 17:15:00,45.7,44.3,30.24,SW,232,5.0,5.0,95,0.00,,---,0.17,0.00,VWS V14.01,2013-02-01 01:15:00,
2013-01-31 17:20:00,45.7,44.3,30.24,SW,235,0.0,5.0,95,0.00,,---,0.17,0.00,VWS V14.01,2013-02-01 01:20:00,
2013-01-31 17:25:00,45.7,44.3,30.24,SSE,158,1.0,3.0,95,0.00,,---,0.17,0.00,VWS V14.01,2013-02-01 01:25:00,
2013-01-31 17:30:00,45.7,44.6,30.24,SSE,158,0.0,2.0,96,0.00,,---,0.17,0.00,VWS V14.01,2013-02-01 01:30:00,
2013-01-31 17:35:00,45.7,44.6,30.24,SSE,158,0.0,0.0,96,0.00,,---,0.17,0.00,VWS V14.01,2013-02-01 01:35:00,
2013-01-31 17:40:00,45.7,44.6,30.24,SSE,158,0.0,0.0,96,0.00,,---,0.17,0.00,VWS V14.01,2013-02-01 01:40:00,
2013-01-31 17:46:00,45.7,44.6,30.24,SSE,158,0.0,0.0,96,0.00,,---,0.17,0.00,VWS V14.01,2013-02-01 01:46:00,
2013-01-31 17:51:00,45.7,44.6,30.24,SSE,158,0.0,0.0,96,0.00,,---,0.17,0.00,VWS V14.01,2013-02-01 01:51:00,
2013-01-31 17:56:00,45.6,44.5,30.24,SSE,159,0.0,1.0,96,0.00,,---,0.17,0.00,VWS V14.01,2013-02-01 01:56:00,
2013-01-31 18:01:00,45.6,44.5,30.24,SSE,159,0.0,1.0,96,0.00,,---,0.17,0.00,VWS V14.01,2013-02-01 02:01:00,
2013-01-31 18:06:00,45.6,44.5,30.24,SSE,159,0.0,0.0,96,0.00,,---,0.17,0.00,VWS V14.01,2013-02-01 02:06:00,
2013-01-31 18:11:00,45.6,44.5,30.24,SSE,159,0.0,1.0,96,0.01,,---,0.18,0.00,VWS V14.01,2013-02-01 02:11:00,
2013-01-31 18:16:00,45.6,44.5,30.24,SSE,159,0.0,1.0,96,0.01,,---,0.18,0.00,VWS V14.01,2013-02-01 02:16:00,
2013-01-31 18:21:00,45.6,44.5,30.24,SSE,159,0.0,0.0,96,0.01,,---,0.18,0.00,VWS V14.01,2013-02-01 02:21:00,
2013-01-31 18:26:00,45.5,44.4,30.24,SSE,159,0.0,0.0,96,0.01,,---,0.18,0.00,VWS V14.01,2013-02-01 02:26:00,
2013-01-31 18:31:00,45.5,44.4,30.24,South,178,1.0,1.0,96,0.01,,---,0.18,0.00,VWS V14.01,2013-02-01 02:31:00,
2013-01-31 18:36:00,45.5,44.7,30.24,SSE,153,1.0,2.0,97,0.01,,---,0.18,0.00,VWS V14.01,2013-02-01 02:36:00,
2013-01-31 18:41:00,45.5,44.7,30.24,SW,232,0.0,3.0,97,0.01,,---,0.18,0.00,VWS V14.01,2013-02-01 02:41:00,
2013-01-31 18:46:00,45.5,44.7,30.24,SW,232,0.0,3.0,97,0.01,,---,0.18,0.00,VWS V14.01,2013-02-01 02:46:00,
2013-01-31 18:51:00,45.4,44.6,30.24,SW,232,0.0,0.0,97,0.01,,---,0.18,0.00,VWS V14.01,2013-02-01 02:51:00,
2013-01-31 18:56:00,45.4,44.6,30.25,SW,232,0.0,1.0,97,0.01,,---,0.18,0.00,VWS V14.01,2013-02-01 02:56:00,
2013-01-31 19:01:00,45.4,44.6,30.24,SW,232,0.0,1.0,97,0.02,,---,0.19,0.00,VWS V14.01,2013-02-01 03:01:00,
2013-01-31 19:06:00,45.4,44.6,30.24,SW,232,0.0,0.0,97,0.02,,---,0.19,0.00,VWS V14.01,2013-02-01 03:06:00,
2013-01-31 19:11:00,45.4,44.6,30.24,SW,232,0.0,2.0,97,0.01,,---,0.19,0.00,VWS V14.01,2013-02-01 03:11:00,
2013-01-31 19:16:00,45.4,44.6,30.24,SW,232,0.0,2.0,97,0.01,,---,0.19,0.00,VWS V14.01,2013-02-01 03:16:00,
2013-01-31 19:21:00,45.4,44.6,30.24,SW,232,0.0,0.0,97,0.01,,---,0.19,0.00,VWS V14.01,2013-02-01 03:21:00,
2013-01-31 19:26:00,45.3,44.5,30.24,SW,232,0.0,0.0,97,0.01,,---,0.19,0.00,VWS V14.01,2013-02-01 03:26:00,
2013-01-31 19:31:00,45.3,44.5,30.24,SW,232,0.0,0.0,97,0.01,,---,0.19,0.00,VWS V14.01,2013-02-01 03:31:00,
2013-01-31 19:36:00,45.3,44.5,30.24,SW,232,0.0,0.0,97,0.01,,---,0.19,0.00,VWS V14.01,2013-02-01 03:36:00,
2013-01-31 19:41:00,45.3,44.5,30.24,SW,232,0.0,0.0,97,0.02,,---,0.20,0.00,VWS V14.01,2013-02-01 03:41:00,
2013-01-31 19:46:00,45.2,44.4,30.24,SW,232,0.0,0.0,97,0.02,,---,0.20,0.00,VWS V14.01,2013-02-01 03:46:00,
2013-01-31 19:51:00,45.2,44.4,30.24,WSW,242,0.0,2.0,97,0.02,,---,0.20,0.00,VWS V14.01,2013-02-01 03:51:00,
2013-01-31 19:56:00,45.2,44.4,30.24,WSW,242,0.0,2.0,97,0.02,,---,0.20,0.00,VWS V14.01,2013-02-01 03:56:00,
2013-01-31 20:01:00,45.3,44.5,30.24,WSW,242,0.0,2.0,97,0.01,,---,0.20,0.00,VWS V14.01,2013-02-01 04:01:00,
2013-01-31 20:06:00,45.3,44.5,30.24,WSW,242,0.0,1.0,97,0.01,,---,0.20,0.00,VWS V14.01,2013-02-01 04:06:00,
2013-01-31 20:11:00,45.2,44.4,30.24,WSW,242,0.0,1.0,97,0.02,,---,0.21,0.00,VWS V14.01,2013-02-01 04:11:00,
2013-01-31 20:16:00,45.2,44.4,30.24,WSW,242,0.0,0.0,97,0.02,,---,0.21,0.00,VWS V14.01,2013-02-01 04:16:00,
2013-01-31 20:21:00,45.2,44.4,30.24,WSW,242,0.0,0.0,97,0.02,,---,0.21,0.00,VWS V14.01,2013-02-01 04:21:00,
2013-01-31 20:26:00,45.2,44.4,30.24,WSW,242,0.0,0.0,97,0.02,,---,0.21,0.00,VWS V14.01,2013-02-01 04:26:00,
2013-01-31 20:31:00,45.2,44.4,30.24,WSW,238,0.0,2.0,97,0.02,,---,0.21,0.00,VWS V14.01,2013-02-01 04:31:00,
2013-01-31 20:36:00,45.2,44.4,30.24,WSW,238,0.0,2.0,97,0.02,,---,0.21,0.00,VWS V14.01,2013-02-01 04:36:00,
2013-01-31 20:41:00,45.2,44.4,30.24,WSW,238,0.0,1.0,97,0.02,,---,0.22,0.00,VWS V14.01,2013-02-01 04:41:00,
2013-01-31 20:46:00,45.2,44.4,30.24,WSW,238,0.0,1.0,97,0.02,,---,0.22,0.00,VWS V14.01,2013-02-01 04:46:00,
2013-01-31 20:51:00,45.2,44.4,30.24,WSW,238,0.0,0.0,97,0.02,,---,0.22,0.00,VWS V14.01,2013-02-01 04:51:00,
2013-01-31 20:56:00,45.2,44.4,30.25,WSW,238,0.0,0.0,97,0.02,,---,0.22,0.00,VWS V14.01,2013-02-01 04:56:00,
2013-01-31 21:01:00,45.2,44.4,30.24,WSW,238,0.0,0.0,97,0.02,,---,0.22,0.00,VWS V14.01,2013-02-01 05:01:00,
2013-01-31 21:06:00,45.1,44.3,30.24,SW,234,0.0,1.0,97,0.02,,---,0.22,0.00,VWS V14.01,2013-02-01 05:06:00,
2013-01-31 21:11:00,45.1,44.6,30.24,SW,234,0.0,1.0,98,0.01,,---,0.22,0.00,VWS V14.01,2013-02-01 05:11:00,
2013-01-31 21:16:00,45.0,44.2,30.24,SW,234,0.0,0.0,97,0.01,,---,0.22,0.00,VWS V14.01,2013-02-01 05:16:00,
2013-01-31 21:21:00,45.0,44.2,30.24,SW,234,0.0,0.0,97,0.01,,---,0.22,0.00,VWS V14.01,2013-02-01 05:21:00,
2013-01-31 21:26:00,45.0,44.5,30.24,SSE,165,0.0,1.0,98,0.01,,---,0.22,0.00,VWS V14.01,2013-02-01 05:26:00,
2013-01-31 21:31:00,45.0,44.5,30.24,SW,220,0.0,2.0,98,0.01,,---,0.22,0.00,VWS V14.01,2013-02-01 05:31:00,
2013-01-31 21:36:00,45.0,44.5,30.24,SW,220,0.0,0.0,98,0.01,,---,0.22,0.00,VWS V14.01,2013-02-01 05:36:00,
2013-01-31 21:41:00,45.0,44.5,30.24,ENE,76,0.0,3.0,98,0.00,,---,0.22,0.00,VWS V14.01,2013-02-01 05:41:00,
2013-01-31 21:46:00,45.0,44.2,30.24,ENE,76,0.0,1.0,97,0.00,,---,0.22,0.00,VWS V14.01,2013-02-01 05:46:00,
2013-01-31 21:51:00,45.0,44.2,30.24,SE,126,0.0,2.0,97,0.00,,---,0.22,0.00,VWS V14.01,2013-02-01 05:51:00,
2013-01-31 21:56:00,44.9,44.1,30.24,SE,126,0.0,2.0,97,0.00,,---,0.22,0.00,VWS V14.01,2013-02-01 05:56:00,
2013-01-31 22:01:00,44.8,44.0,30.24,SE,126,0.0,0.0,97,0.00,,---,0.22,0.00,VWS V14.01,2013-02-01 06:01:00,
2013-01-31 22:06:00,44.8,44.3,30.24,SE,126,1.0,1.0,98,0.00,,---,0.22,0.00,VWS V14.01,2013-02-01 06:06:00,
2013-01-31 22:11:00,44.7,44.2,30.24,East,92,0.0,1.0,98,0.00,,---,0.22,0.00,VWS V14.01,2013-02-01 06:11:00,
2013-01-31 22:16:00,44.7,44.2,30.25,East,92,0.0,0.0,98,0.00,,---,0.22,0.00,VWS V14.01,2013-02-01 06:16:00,
2013-01-31 22:21:00,44.7,44.2,30.24,East,92,0.0,1.0,98,0.00,,---,0.22,0.00,VWS V14.01,2013-02-01 06:21:00,
2013-01-31 22:26:00,44.7,44.2,30.25,East,92,0.0,1.0,98,0.00,,---,0.22,0.00,VWS V14.01,2013-02-01 06:26:00,
2013-01-31 22:31:00,44.7,44.2,30.25,East,92,0.0,0.0,98,0.00,,---,0.22,0.00,VWS V14.01,2013-02-01 06:31:00,
2013-01-31 22:36:00,44.7,44.2,30.25,ESE,103,0.0,0.0,98,0.00,,---,0.22,0.00,VWS V14.01,2013-02-01 06:36:00,
2013-01-31 22:41:00,44.7,44.2,30.25,ESE,103,0.0,0.0,98,0.00,,---,0.22,0.00,VWS V14.01,2013-02-01 06:41:00,
2013-01-31 22:46:00,44.7,44.2,30.25,ESE,103,0.0,0.0,98,0.00,,---,0.22,0.00,VWS V14.01,2013-02-01 06:46:00,
2013-01-31 22:51:00,44.7,44.2,30.25,ESE,103,0.0,0.0,98,0.00,,---,0.22,0.00,VWS V14.01,2013-02-01 06:51:00,
2013-01-31 22:56:00,44.7,44.2,30.25,ESE,103,0.0,0.0,98,0.00,,---,0.22,0.00,VWS V14.01,2013-02-01 06:56:00,
2013-01-31 23:01:00,44.7,44.2,30.25,ESE,103,0.0,0.0,98,0.00,,---,0.22,0.00,VWS V14.01,2013-02-01 07:01:00,
2013-01-31 23:06:00,44.7,44.2,30.25,ESE,103,0.0,0.0,98,0.00,,---,0.22,0.00,VWS V14.01,2013-02-01 07:06:00,
2013-01-31 23:11:00,44.8,44.3,30.25,ESE,103,0.0,0.0,98,0.00,,---,0.22,0.00,VWS V14.01,2013-02-01 07:11:00,
2013-01-31 23:16:00,44.7,44.2,30.25,ESE,103,0.0,0.0,98,0.00,,---,0.22,0.00,VWS V14.01,2013-02-01 07:16:00,
2013-01-31 23:21:00,44.7,44.2,30.25,ESE,103,0.0,0.0,98,0.00,,---,0.22,0.00,VWS V14.01,2013-02-01 07:21:00,
2013-01-31 23:26:00,44.7,44.2,30.25,East,99,0.0,0.0,98,0.00,,---,0.22,0.00,VWS V14.01,2013-02-01 07:26:00,
2013-01-31 23:31:00,44.7,44.2,30.25,East,99,0.0,0.0,98,0.00,,---,0.22,0.00,VWS V14.01,2013-02-01 07:31:00,
2013-01-31 23:37:00,44.7,44.2,30.26,East,99,0.0,0.0,98,0.00,,---,0.22,0.00,VWS V14.01,2013-02-01 07:37:00,
2013-01-31 23:42:00,44.7,44.2,30.26,East,99,0.0,0.0,98,0.01,,---,0.23,0.00,VWS V14.01,2013-02-01 07:42:00,
2013-01-31 23:47:00,44.7,44.2,30.26,East,99,0.0,0.0,98,0.01,,---,0.23,0.00,VWS V14.01,2013-02-01 07:47:00,
2013-01-31 23:52:00,44.7,44.2,30.26,East,99,0.0,0.0,98,0.01,,---,0.23,0.00,VWS V14.01,2013-02-01 07:52:00,
2013-01-31 23:57:00,44.8,44.3,30.26,East,99,0.0,0.0,98,0.02,,---,0.24,0.00,VWS V14.01,2013-02-01 07:57:00,